KD2RHT-13 Weather Reports


Display with metric or nautical units.
time (UTC)temp
F
wind
direction
speed
MPH
gust
MPH
rain 1hr
in
rain 24hr
in
rain mn
in
humidity
%
barometer
mb
20260906012604 67 162 0.0 0.0 0.00 0.00 0.00 93 1016.2
20260906012059 67 161 0.0 0.0 0.00 0.00 0.00 92 1016.2
20260906011555 67 161 0.0 0.0 0.00 0.00 0.00 92 1015.9
20260906011054 67 159 0.0 0.0 0.00 0.00 0.00 92 1016.2
20260906010550 67 168 0.0 1.0 0.00 0.00 0.00 92 1015.9
20260906010046 67 161 0.0 0.0 0.00 0.00 0.00 92 1015.9
20260906005545 67 133 1.0 2.0 0.00 0.00 0.00 93 1015.9
20260906005044 67 160 0.0 0.0 0.00 0.00 0.00 93 1016.2
20260906004539 67 164 0.0 0.0 0.00 0.00 0.00 92 1015.9
20260906004034 67 164 0.0 0.0 0.00 0.00 0.00 92 1015.6
20260906003528 67 159 0.0 0.0 0.00 0.00 0.00 92 1015.9
20260906003024 67 178 0.0 1.0 0.00 0.00 0.00 91 1015.6
20260906002519 67 178 0.0 1.0 0.00 0.00 0.00 91 1015.9
20260906002014 67 294 3.0 3.0 0.00 0.00 0.00 91 1016.2
20260906001509 67 192 0.0 1.0 0.00 0.00 0.00 91 1015.6
20260906001004 68 148 1.0 1.0 0.00 0.00 0.00 90 1015.9
20260906000459 68 148 1.0 1.0 0.00 0.00 0.00 90 1015.6
20260905235954 68 282 1.0 2.0 0.00 0.00 0.00 90 1015.9
20260905235453 68 168 1.0 1.0 0.00 0.00 0.00 89 1015.9
20260905234948 68 222 1.0 2.0 0.00 0.00 0.00 89 1015.6
20260905234445 69 182 2.0 2.0 0.00 0.00 0.00 88 1015.9
20260905233944 69 236 1.0 1.0 0.00 0.00 0.00 87 1015.9
20260905233440 69 152 1.0 2.0 0.00 0.00 0.00 86 1015.9
20260905232938 69 261 3.0 3.0 0.00 0.00 0.00 86 1015.9
20260905232435 70 276 3.0 5.0 0.00 0.00 0.00 85 1015.6
20260905231930 70 176 1.0 2.0 0.00 0.00 0.00 85 1015.6
20260905231426 70 174 1.0 2.0 0.00 0.00 0.00 84 1015.6
20260905230922 70 149 1.0 1.0 0.00 0.00 0.00 84 1015.6
20260905230420 70 224 1.0 1.0 0.00 0.00 0.00 84 1015.6
20260905225914 71 318 2.0 3.0 0.00 0.00 0.00 83 1015.2
20260905225409 71 276 3.0 5.0 0.00 0.00 0.00 83 1015.6
20260905224904 71 89 3.0 3.0 0.00 0.00 0.00 83 1015.6
20260905224359 71 124 2.0 3.0 0.00 0.00 0.00 82 1015.6
20260905223853 71 168 1.0 1.0 0.00 0.00 0.00 82 1015.9
20260905223352 71 161 0.0 1.0 0.00 0.00 0.00 82 1015.9
20260905222851 71 202 3.0 5.0 0.00 0.00 0.00 81 1015.6
20260905222350 72 198 3.0 5.0 0.00 0.00 0.00 81 1015.6
20260905221846 72 296 2.0 2.0 0.00 0.00 0.00 81 1015.6
20260905221343 72 201 1.0 1.0 0.00 0.00 0.00 82 1015.6
20260905220838 72 126 2.0 3.0 0.00 0.00 0.00 80 1015.9
20260905220335 72 184 2.0 3.0 0.00 0.00 0.00 80 1015.6
20260905215833 72 190 1.0 2.0 0.00 0.00 0.00 80 1015.6
20260905215324 72 174 3.0 3.0 0.00 0.00 0.00 80 1015.2
20260905214821 72 162 3.0 5.0 0.00 0.00 0.00 80 1015.2
20260905214316 72 150 1.0 2.0 0.00 0.00 0.00 79 1015.2
20260905213816 72 195 2.0 3.0 0.00 0.00 0.00 80 1015.2
20260905213313 73 284 5.0 7.0 0.00 0.00 0.00 79 1014.9
20260905212812 73 252 0.0 1.0 0.00 0.00 0.00 79 1014.9
20260905212312 73 303 3.0 3.0 0.00 0.00 0.00 78 1014.9
20260905211807 73 244 2.0 2.0 0.00 0.00 0.00 78 1014.9
20260905211302 73 293 3.0 3.0 0.00 0.00 0.00 77 1014.9
20260905210759 73 173 0.0 0.0 0.00 0.00 0.00 76 1014.9
20260905210253 73 319 1.0 2.0 0.00 0.00 0.00 77 1014.9
20260905205751 74 153 0.0 0.0 0.00 0.00 0.00 76 1014.9
20260905205247 74 231 1.0 1.0 0.00 0.00 0.00 77 1015.2
20260905204745 74 275 5.0 6.0 0.00 0.00 0.00 76 1014.9
20260905204242 73 355 6.0 8.0 0.00 0.00 0.00 76 1014.9
20260905203741 73 121 2.0 3.0 0.00 0.00 0.00 77 1014.9
20260905203236 74 268 1.0 2.0 0.00 0.00 0.00 77 1014.9
20260905202732 74 246 3.0 5.0 0.00 0.00 0.00 77 1014.9
20260905202227 74 226 2.0 3.0 0.00 0.00 0.00 76 1014.9
20260905201723 75 256 7.0 9.0 0.00 0.00 0.00 75 1014.9
20260905201222 75 171 4.0 6.0 0.00 0.00 0.00 75 1014.9
20260905200718 75 127 1.0 1.0 0.00 0.00 0.00 74 1014.9
20260905200213 75 352 5.0 5.0 0.00 0.00 0.00 74 1014.9
20260905195711 76 109 2.0 3.0 0.00 0.00 0.00 72 1014.9
20260905195206 75 260 5.0 8.0 0.00 0.00 0.00 74 1014.9
20260905194656 75 264 5.0 7.0 0.00 0.00 0.00 74 1014.9
20260905194155 75 95 2.0 2.0 0.00 0.00 0.00 74 1015.2
20260905193650 76 72 2.0 5.0 0.00 0.00 0.00 73 1014.9
20260905193145 77 138 1.0 1.0 0.00 0.00 0.00 73 1014.9
20260905192641 77 287 5.0 6.0 0.00 0.00 0.00 71 1014.5
20260905192137 78 224 2.0 3.0 0.00 0.00 0.00 70 1014.5
20260905191637 79 169 0.0 0.0 0.00 0.00 0.00 69 1014.9
20260905191134 78 254 3.0 3.0 0.00 0.00 0.00 71 1014.5
20260905190633 78 156 1.0 1.0 0.00 0.00 0.00 70 1014.9
20260905190126 78 234 4.0 6.0 0.00 0.00 0.00 70 1014.5
20260905185625 78 261 3.0 3.0 0.00 0.00 0.00 73 1014.9
20260905185120 77 158 2.0 2.0 0.00 0.00 0.00 72 1014.5
20260905184614 79 167 1.0 2.0 0.00 0.00 0.00 73 1014.5
20260905184113 78 242 2.0 3.0 0.00 0.00 0.00 71 1014.5
20260905183612 77 247 3.0 5.0 0.00 0.00 0.00 70 1014.5
20260905183108 78 298 5.0 7.0 0.00 0.00 0.00 71 1014.5
20260905182608 78 92 3.0 3.0 0.00 0.00 0.00 70 1014.9
20260905182102 79 27 1.0 2.0 0.00 0.00 0.00 68 1014.9
20260905181602 79 174 1.0 1.0 0.00 0.00 0.00 71 1014.5
20260905181101 78 165 0.0 0.0 0.00 0.00 0.00 71 1014.5
20260905180556 77 153 0.0 1.0 0.00 0.00 0.00 72 1014.9
20260905180052 77 169 1.0 1.0 0.00 0.00 0.00 70 1014.5
20260905175550 78 302 5.0 7.0 0.00 0.00 0.00 70 1014.5
20260905175046 79 244 2.0 3.0 0.00 0.00 0.00 69 1014.5
20260905174542 79 216 1.0 1.0 0.00 0.00 0.00 70 1014.9
20260905174037 78 150 0.0 1.0 0.00 0.00 0.00 69 1014.5
20260905173534 78 132 1.0 2.0 0.00 0.00 0.00 70 1014.5
20260905173029 78 143 1.0 2.0 0.00 0.00 0.00 67 1014.5
20260905172528 78 102 3.0 3.0 0.00 0.00 0.00 69 1014.5
20260905172023 78 81 1.0 2.0 0.00 0.00 0.00 70 1014.9
20260905171520 77 139 4.0 5.0 0.00 0.00 0.00 70 1014.9
20260905171015 78 153 0.0 1.0 0.00 0.00 0.00 72 1014.9
20260905170512 77 305 2.0 3.0 0.00 0.00 0.00 71 1015.2
20260905170007 79 192 2.0 2.0 0.00 0.00 0.00 69 1015.2
20260905165501 78 145 2.0 3.0 0.00 0.00 0.00 70 1014.9
20260905164956 77 130 1.0 1.0 0.00 0.00 0.00 72 1014.9
20260905164455 75 158 0.0 1.0 0.00 0.00 0.00 75 1014.9
20260905163950 76 194 0.0 0.0 0.00 0.00 0.00 73 1014.9
20260905163447 79 81 2.0 5.0 0.00 0.00 0.00 68 1014.9
20260905162943 77 154 0.0 1.0 0.00 0.00 0.00 70 1014.9
20260905162438 76 315 2.0 3.0 0.00 0.00 0.00 72 1014.9
20260905161933 78 194 1.0 2.0 0.00 0.00 0.00 72 1014.9
20260905161432 76 151 2.0 2.0 0.00 0.00 0.00 74 1015.2
20260905160930 74 120 1.0 2.0 0.00 0.00 0.00 75 1014.9
20260905160425 75 37 4.0 5.0 0.00 0.00 0.00 73 1015.2
20260905155924 76 114 3.0 5.0 0.00 0.00 0.00 72 1014.9
20260905155418 75 168 0.0 1.0 0.00 0.00 0.00 74 1014.9
20260905154917 76 335 2.0 2.0 0.00 0.00 0.00 73 1015.2
20260905154413 75 159 0.0 0.0 0.00 0.00 0.00 78 1015.2
20260905153908 73 154 0.0 0.0 0.00 0.00 0.00 79 1014.9
20260905153405 73 143 0.0 0.0 0.00 0.00 0.00 77 1015.2
20260905152904 74 190 2.0 2.0 0.00 0.00 0.00 76 1015.2
20260905152403 75 247 3.0 3.0 0.00 0.00 0.00 74 1014.9
20260905151858 75 305 4.0 6.0 0.00 0.00 0.00 75 1015.2
20260905151354 74 159 0.0 0.0 0.00 0.00 0.00 80 1015.6
20260905150849 73 156 0.0 0.0 0.00 0.00 0.00 80 1015.2
20260905150343 73 162 0.0 0.0 0.00 0.00 0.00 77 1015.6
20260905145840 73 165 1.0 1.0 0.00 0.00 0.00 80 1015.6
20260905145335 73 158 2.0 2.0 0.00 0.00 0.00 78 1015.6
20260905144834 73 191 1.0 1.0 0.00 0.00 0.00 80 1015.6
20260905144330 74 267 3.0 3.0 0.00 0.00 0.00 80 1015.2
20260905143828 73 146 0.0 0.0 0.00 0.00 0.00 82 1015.2
20260905143323 73 151 0.0 1.0 0.00 0.00 0.00 82 1015.2
20260905142821 73 186 0.0 1.0 0.00 0.00 0.00 83 1015.2
20260905142316 73 135 1.0 1.0 0.00 0.00 0.00 83 1015.2
20260905141812 72 136 0.0 0.0 0.00 0.00 0.00 83 1015.2
20260905141307 71 144 0.0 0.0 0.00 0.00 0.00 85 1015.2
20260905140802 73 138 0.0 0.0 0.00 0.00 0.00 83 1015.2
20260905140256 72 157 0.0 0.0 0.00 0.00 0.00 83 1015.2
20260905135755 72 165 0.0 1.0 0.00 0.00 0.00 85 1015.2
20260905135252 72 151 0.0 0.0 0.00 0.00 0.00 84 1015.2
20260905134751 71 170 0.0 1.0 0.00 0.00 0.00 85 1015.2
20260905134245 71 155 0.0 0.0 0.00 0.00 0.00 87 1015.2
20260905133740 71 151 0.0 0.0 0.00 0.00 0.00 87 1015.2
20260905133235 69 199 3.0 3.0 0.00 0.00 0.00 89 1015.2
20260905132734 69 137 1.0 1.0 0.00 0.00 0.00 91 1015.6
20260905132230 68 153 0.0 0.0 0.00 0.00 0.00 92 1015.6
20260905131724 68 160 0.0 0.0 0.00 0.00 0.00 93 1015.2
20260905131220 67 162 0.0 0.0 0.00 0.00 0.00 93 1015.6
20260905130714 67 306 1.0 2.0 0.00 0.00 0.00 93 1015.2
20260905130214 67 151 0.0 0.0 0.00 0.00 0.00 93 1015.6
20260905125709 66 138 0.0 1.0 0.00 0.00 0.00 94 1015.6
20260905125204 66 166 0.0 0.0 0.00 0.00 0.00 95 1015.6
20260905124700 66 154 0.0 0.0 0.00 0.00 0.00 95 1015.6
20260905124156 65 158 0.0 0.0 0.00 0.00 0.00 96 1015.6
20260905123651 65 159 0.0 0.0 0.00 0.00 0.00 96 1015.6
20260905123148 65 133 2.0 2.0 0.00 0.00 0.00 97 1015.2
20260905122647 64 162 0.0 1.0 0.00 0.00 0.00 97 1015.6
20260905122142 64 156 0.0 0.0 0.00 0.00 0.00 97 1015.2
20260905121637 63 161 0.0 0.0 0.00 0.00 0.00 98 1015.2
20260905121132 64 166 0.0 0.0 0.00 0.00 0.00 99 1015.6
20260905120631 63 173 0.0 0.0 0.00 0.00 0.00 99 1015.2
20260905120126 64 169 0.0 0.0 0.00 0.00 0.00 99 1015.6
20260905115626 64 165 0.0 0.0 0.00 0.00 0.00 99 1015.2
20260905115121 65 164 0.0 0.0 0.00 0.00 0.00 99 1014.9
20260905114620 65 164 0.0 0.0 0.00 0.00 0.00 99 1014.9
20260905114119 63 164 0.0 0.0 0.00 0.00 0.00 99 1014.9
20260905113614 61 167 0.0 0.0 0.00 0.00 0.00 99 1015.2
20260905113110 59 166 0.0 0.0 0.00 0.00 0.00 99 1014.9
20260905112604 59 165 0.0 0.0 0.00 0.00 0.00 99 1014.9
20260905112100 58 165 0.0 0.0 0.00 0.00 0.00 99 1014.9
20260905111555 58 167 0.0 0.0 0.00 0.00 0.00 99 1014.9
20260905111054 58 169 0.0 0.0 0.00 0.00 0.00 99 1014.9
20260905110553 58 170 0.0 0.0 0.00 0.00 0.00 99 1014.9
20260905110048 58 170 0.0 0.0 0.00 0.00 0.00 99 1014.9
20260905105548 57 172 0.0 0.0 0.00 0.00 0.00 99 1014.9
20260905105048 58 170 0.0 0.0 0.00 0.00 0.00 99 1014.5
20260905104544 57 169 0.0 0.0 0.00 0.00 0.00 99 1014.2
20260905104043 58 169 0.0 0.0 0.00 0.00 0.00 99 1014.2
20260905103538 58 170 0.0 0.0 0.00 0.00 0.00 99 1014.2
20260905103035 58 170 0.0 0.0 0.00 0.00 0.00 99 1013.9
20260905102530 58 170 0.0 0.0 0.00 0.00 0.00 99 1014.2
20260905102026 58 171 0.0 0.0 0.00 0.00 0.00 99 1014.2
20260905101524 58 171 0.0 0.0 0.00 0.00 0.00 99 1014.5
20260905101023 58 171 0.0 0.0 0.00 0.00 0.00 99 1014.2
20260905100520 58 171 0.0 0.0 0.00 0.00 0.00 99 1014.2
20260905100019 59 169 0.0 0.0 0.00 0.00 0.00 99 1013.9
20260905095514 59 173 0.0 0.0 0.00 0.00 0.00 99 1013.9
20260905095009 59 173 0.0 0.0 0.00 0.00 0.00 99 1014.2
20260905094504 59 171 0.0 0.0 0.00 0.00 0.00 99 1014.2
20260905094003 59 171 0.0 0.0 0.00 0.00 0.00 99 1013.9
20260905093458 59 172 0.0 0.0 0.00 0.00 0.00 99 1014.2
20260905092954 59 172 0.0 0.0 0.00 0.00 0.00 99 1014.2
20260905092443 59 171 0.0 0.0 0.00 0.00 0.00 99 1014.2
20260905091938 59 176 0.0 0.0 0.00 0.00 0.00 99 1014.2
20260905091432 58 172 0.0 0.0 0.00 0.00 0.00 99 1014.2
20260905090931 59 172 0.0 0.0 0.00 0.00 0.00 99 1014.5
20260905090427 59 172 0.0 0.0 0.00 0.00 0.00 99 1014.2
20260905085927 59 172 0.0 0.0 0.00 0.00 0.00 99 1014.2
20260905085425 59 173 0.0 0.0 0.00 0.00 0.00 99 1014.2
20260905084922 59 173 0.0 0.0 0.00 0.00 0.00 99 1014.2
20260905084421 59 173 0.0 0.0 0.00 0.00 0.00 99 1014.5
20260905083916 59 172 0.0 0.0 0.00 0.00 0.00 99 1014.5
20260905083412 59 170 0.0 0.0 0.00 0.00 0.00 99 1014.5
20260905082907 60 171 0.0 0.0 0.00 0.00 0.00 99 1014.5
20260905082403 59 173 0.0 0.0 0.00 0.00 0.00 99 1014.5
20260905081853 59 175 0.0 0.0 0.00 0.00 0.00 99 1014.5
20260905081348 60 172 0.0 0.0 0.00 0.00 0.00 99 1014.5
20260905080846 60 170 0.0 0.0 0.00 0.00 0.00 99 1014.2
20260905080341 60 173 0.0 0.0 0.00 0.00 0.00 99 1014.5
20260905075839 60 172 0.0 0.0 0.00 0.00 0.00 99 1014.9
20260905075334 60 172 0.0 0.0 0.00 0.00 0.00 99 1014.5
20260905074833 60 172 0.0 0.0 0.00 0.00 0.00 99 1014.2
20260905074330 60 170 0.0 0.0 0.00 0.00 0.00 99 1014.5
20260905073825 61 170 0.0 0.0 0.00 0.00 0.00 99 1014.2
20260905073319 61 174 0.0 0.0 0.00 0.00 0.00 99 1014.2
20260905072814 61 173 0.0 0.0 0.00 0.00 0.00 99 1014.5
20260905072309 61 173 0.0 0.0 0.00 0.00 0.00 99 1014.2
20260905071806 61 173 0.0 0.0 0.00 0.00 0.00 99 1014.2
20260905071302 61 172 0.0 0.0 0.00 0.00 0.00 98 1014.5
20260905070756 61 173 0.0 0.0 0.00 0.00 0.00 98 1014.5
20260905070252 62 173 0.0 0.0 0.00 0.00 0.00 98 1014.5
20260905065751 62 173 0.0 0.0 0.00 0.00 0.00 98 1014.5
20260905065245 62 174 0.0 0.0 0.00 0.00 0.00 98 1014.5
20260905064740 63 173 0.0 0.0 0.00 0.00 0.00 97 1014.5
20260905064236 63 173 0.0 0.0 0.00 0.00 0.00 97 1014.5
20260905063734 63 174 0.0 0.0 0.00 0.00 0.00 97 1014.5
20260905063230 63 173 0.0 0.0 0.00 0.00 0.00 97 1014.9
20260905062726 64 173 0.0 0.0 0.00 0.00 0.00 96 1014.5
20260905062225 64 173 0.0 0.0 0.00 0.00 0.00 96 1014.9
20260905061720 64 174 0.0 0.0 0.00 0.00 0.00 95 1014.5
20260905061214 65 173 0.0 0.0 0.00 0.00 0.00 95 1014.9
20260905060709 65 173 0.0 0.0 0.00 0.00 0.00 94 1014.5
20260905060206 65 174 0.0 0.0 0.00 0.00 0.00 94 1014.5
20260905055704 66 173 0.0 0.0 0.00 0.00 0.00 93 1014.5
20260905055200 66 173 0.0 0.0 0.00 0.00 0.00 92 1014.5
20260905054655 66 174 0.0 0.0 0.00 0.00 0.00 92 1014.9
20260905054151 66 223 0.0 1.0 0.00 0.00 0.00 92 1014.9
20260905053650 66 229 0.0 0.0 0.00 0.00 0.00 93 1014.9
20260905053140 66 174 0.0 0.0 0.00 0.00 0.00 93 1014.9
20260905052639 66 175 0.0 0.0 0.00 0.00 0.00 94 1014.9
20260905052135 66 177 0.0 0.0 0.00 0.00 0.00 94 1014.9
20260905051629 66 180 0.0 0.0 0.00 0.00 0.00 95 1014.9
20260905051126 66 174 0.0 0.0 0.00 0.00 0.00 95 1015.2
20260905050622 66 171 0.0 0.0 0.00 0.00 0.00 95 1014.9
20260905050118 66 172 0.0 0.0 0.00 0.00 0.00 96 1014.9
20260905045618 66 173 0.0 0.0 0.00 0.00 0.00 96 1014.9
20260905045113 66 172 0.0 0.0 0.00 0.00 0.00 96 1014.9
20260905044608 66 173 0.0 0.0 0.00 0.00 0.00 95 1014.9
20260905044103 66 175 0.0 0.0 0.00 0.00 0.00 95 1014.9
20260905043601 66 174 0.0 0.0 0.00 0.00 0.00 96 1014.9
20260905043057 66 174 0.0 0.0 0.00 0.00 0.00 96 1014.9
20260905042555 67 173 0.0 0.0 0.00 0.00 0.00 96 1014.9
20260905042051 67 173 0.0 0.0 0.00 0.00 0.00 96 1014.9
20260905041546 67 173 0.0 0.0 0.00 0.00 0.00 95 1014.9
20260905041042 67 174 0.0 0.0 0.00 0.00 0.00 95 1014.9
20260905040541 67 177 0.0 0.0 0.00 0.00 0.00 96 1014.9
20260905040040 67 175 0.0 0.0 0.00 0.00 0.00 96 1014.9
20260905035535 67 173 0.0 0.0 0.00 0.00 0.00 96 1014.9
20260905035032 67 332 1.0 2.0 0.00 0.00 0.00 96 1014.9
20260905034527 67 186 0.0 1.0 0.00 0.00 0.00 96 1014.5
20260905034027 67 198 0.0 0.0 0.00 0.00 0.00 96 1014.9
20260905033520 67 199 0.0 0.0 0.00 0.00 0.00 96 1014.9
20260905033017 67 262 2.0 2.0 0.00 0.00 0.00 96 1014.9
20260905032511 67 226 1.0 2.0 0.00 0.00 0.00 96 1014.9
20260905032006 67 168 0.0 1.0 0.00 0.00 0.00 96 1014.9
20260905031502 67 166 0.0 0.0 0.00 0.00 0.00 96 1014.9
20260905030956 67 168 0.0 0.0 0.00 0.00 0.00 96 1014.9
20260905030452 67 171 0.0 0.0 0.00 0.00 0.00 96 1014.5
20260905025951 67 168 0.0 0.0 0.00 0.00 0.00 96 1014.5
20260905025447 67 174 0.0 0.0 0.00 0.00 0.00 96 1014.5
20260905024943 67 202 0.0 0.0 0.00 0.00 0.00 96 1014.5
20260905024443 67 189 0.0 0.0 0.00 0.00 0.00 96 1014.5
20260905023939 67 156 0.0 0.0 0.00 0.00 0.00 95 1014.9
20260905023433 67 159 0.0 0.0 0.00 0.00 0.00 95 1014.9
20260905022932 66 162 0.0 0.0 0.00 0.00 0.00 95 1014.9
20260905022428 66 158 0.0 0.0 0.00 0.00 0.00 96 1014.5
20260905021923 66 160 0.0 0.0 0.00 0.00 0.00 96 1014.9
20260905021417 65 160 0.0 0.0 0.00 0.00 0.00 95 1014.9
20260905020913 65 160 0.0 0.0 0.00 0.00 0.00 95 1014.9
20260905020412 66 160 0.0 0.0 0.00 0.00 0.00 94 1015.2
20260905015912 66 160 0.0 0.0 0.00 0.00 0.00 93 1014.9
20260905015410 66 160 0.0 0.0 0.00 0.00 0.00 92 1015.2
20260905014910 66 160 0.0 0.0 0.00 0.00 0.00 92 1014.9
20260905014405 66 163 0.0 0.0 0.00 0.00 0.00 92 1014.9
20260905013901 67 165 0.0 0.0 0.00 0.00 0.00 91 1014.9
20260905013357 67 163 0.0 0.0 0.00 0.00 0.00 91 1014.9